Baton Rouge, LA

7:49 AM CDT on September 30, 2016 (GMT -0500)
Baton Rouge Metro-Ryan

Weather History for KBTR - January, 2014

Change the Weather History Date:

Thursday, January 23, 2014

  Actual Average Record
Temperature  
Mean Temperature 42 °F 52 °F  
Max Temperature 52 °F 62 °F 84 °F (1943)
Min Temperature 32 °F 41 °F 18 °F (1930)
Degree Days  
Heating Degree Days 23 14  
Month to date heating degree days 425 322  
Since 1 July heating degree days 1149 938  
Cooling Degree Days 0 0  
Month to date cooling degree days 0 3  
Year to date cooling degree days 0 3  
Moisture  
Dew Point 29 °F    
Average Humidity 60    
Maximum Humidity 85    
Minimum Humidity 35    
Precipitation  
Precipitation T in 0.19 in 3.00 in (1915)
Month to date precipitation 1.48 4.21  
Year to date precipitation 1.48 4.21  
Snow  
Snow 0.00 in - - ()
Month to date snowfall 0.0  
Since 1 July snowfall 0.0  
Snow Depth 0.00 in    
Sea Level Pressure  
Sea Level Pressure 30.38 in    
Wind  
Wind Speed 9 mph (NE)    
Max Wind Speed 20 mph    
Max Gust Speed 28 mph    
Visibility 10 miles    
Events      
T = Trace of Precipitation, MM = Missing Value Source: NWS Daily Summary

Daily Weather History Graph

Daily Weather History Graph

Search for Another Location

Airport or City:

Trip Planner

Search our weather history database for the weather conditions in past years. The results will help you decide how hot, cold, wet, or windy it might be!

Date:

Astronomy

Jan. 23, 2014 Rise Set
Actual Time 7:00 AM CST 5:33 PM CST
Civil Twilight 6:34 AM CST 5:58 PM CST
Nautical Twilight 6:05 AM CST 6:27 PM CST
Astronomical Twilight 5:36 AM CST 6:56 PM CST
Moon No Moon Rise 11:07 AM CST (1/23)
Length of Visible Light 11h 24m
Length of Day
10h 32m
Waning Gibbous, 55% of the Moon is Illuminated
Jan 23
Waning Gibbous
Jan 23
Last Quarter
Jan 30
New
Feb 6
First Quarter
Feb 14
Full

Hourly Weather History & Observations

Time (CST) Temp. Windchill Dew Point Humidity Pressure Visibility Wind Dir Wind Speed Gust Speed Precip Events Conditions
12:53 AM 39.9 °F - 33.1 °F 77% 30.20 in - Calm Calm - N/A   Clear
1:53 AM 37.0 °F 34.5 °F 32.0 °F 82% 30.20 in - NE 3.5 mph - N/A   Clear
2:53 AM 37.9 °F 34.4 °F 32.0 °F 79% 30.21 in - ENE 4.6 mph - N/A   Clear
3:53 AM 37.9 °F 32.7 °F 33.1 °F 83% 30.21 in - NE 6.9 mph - N/A   Partly Cloudy
4:53 AM 39.9 °F 36.7 °F 34.0 °F 79% 30.24 in - ENE 4.6 mph - N/A   Overcast
5:53 AM 39.9 °F 35.8 °F 34.0 °F 79% 30.27 in 10.0 mi NE 5.8 mph - N/A   Mostly Cloudy
6:53 AM 41.0 °F 36.4 °F 34.0 °F 76% 30.30 in 10.0 mi ENE 6.9 mph - N/A   Overcast
7:53 AM 42.1 °F 36.1 °F 34.0 °F 73% 30.31 in 10.0 mi ENE 10.4 mph - N/A   Mostly Cloudy
8:53 AM 44.1 °F 39.0 °F 34.0 °F 68% 30.35 in 10.0 mi East 9.2 mph - N/A   Scattered Clouds
9:53 AM 46.9 °F - 30.9 °F 54% 30.37 in 10.0 mi ENE 13.8 mph - N/A   Overcast
10:53 AM 46.9 °F - 26.1 °F 44% 30.38 in 10.0 mi ENE 10.4 mph - N/A   Overcast
11:53 AM 48.0 °F - 24.1 °F 39% 30.38 in 10.0 mi NE 13.8 mph - N/A   Overcast
12:53 PM 50.0 °F - 24.1 °F 36% 30.35 in 10.0 mi ENE 16.1 mph - N/A   Mostly Cloudy
1:53 PM 51.1 °F - 24.1 °F 35% 30.35 in 10.0 mi ENE 9.2 mph - N/A   Overcast
2:53 PM 48.0 °F - 23.0 °F 37% 30.38 in 10.0 mi North 8.1 mph - N/A   Overcast
3:53 PM 46.9 °F - 27.0 °F 46% 30.40 in 10.0 mi NNE 8.1 mph - 0.00 in   Overcast
4:53 PM 46.0 °F 41.0 °F 27.0 °F 47% 30.42 in 10.0 mi NNE 10.4 mph - N/A   Overcast
5:53 PM 44.1 °F 39.0 °F 30.0 °F 58% 30.43 in 10.0 mi North 9.2 mph - 0.00 in   Overcast
6:53 PM 45.0 °F 39.7 °F 26.1 °F 48% 30.45 in - NNE 10.4 mph 21.9 mph N/A   Overcast
7:53 PM 42.1 °F 34.9 °F 21.0 °F 43% 30.48 in - North 13.8 mph 23.0 mph N/A   Overcast
8:53 PM 37.0 °F 28.9 °F 26.1 °F 65% 30.54 in 10.0 mi NNE 12.7 mph 23.0 mph N/A   Overcast
9:53 PM 35.1 °F 26.9 °F 27.0 °F 72% 30.58 in - NNE 11.5 mph - N/A   Overcast
10:26 PM 34.0 °F 24.2 °F 26.1 °F 73% 30.59 in - NNE 15.0 mph 27.6 mph N/A   Overcast
10:53 PM 34.0 °F 24.6 °F 26.1 °F 73% 30.59 in - NNE 13.8 mph 24.2 mph N/A   Overcast
11:53 PM 32.0 °F 24.2 °F 26.1 °F 79% 30.62 in - NNE 9.2 mph 24.2 mph 0.00 in   Overcast